| time (UTC) | temp F | wind direction | speed knots | gust knots | rain 1hr in | rain 24hr in | rain mn in | humidity % | barometer mb |
| 20260831135014 | 75 | 281 | 1.7 | 4.3 | 0.00 | 0.00 | 0.00 | 77 | 1016.1 |
| 20260831134614 | 75 | 245 | 1.7 | 4.3 | 0.00 | 0.07 | 0.00 | 76 | 1016.1 |
| 20260831134531 | 75 | 259 | 1.7 | 4.3 | 0.00 | 0.01 | 0.00 | 76 | 1016.0 |
| 20260831134015 | 75 | 304 | 2.6 | 5.2 | 0.00 | 0.02 | 0.00 | 76 | 1016.2 |
| 20260831133518 | 75 | 271 | 0.9 | 5.2 | 0.00 | 0.06 | 0.00 | 77 | 1015.9 |
| 20260831133109 | 75 | 259 | 1.7 | 4.3 | 0.00 | 0.07 | 0.00 | 77 | 1016.0 |
| 20260831133036 | 75 | 282 | 1.7 | 4.3 | 0.00 | 0.07 | 0.00 | 76 | 1016.0 |
| 20260831132516 | 74 | 284 | 1.7 | 4.3 | 0.00 | 0.07 | 0.00 | 77 | 1016.0 |
| 20260831132020 | 74 | 113 | 0.9 | 3.5 | 0.00 | 0.07 | 0.00 | 78 | 1016.0 |
| 20260831131601 | 74 | 264 | 1.7 | 5.2 | 0.00 | 0.07 | 0.00 | 78 | 1016.2 |
| 20260831131517 | 74 | 288 | 1.7 | 5.2 | 0.00 | 0.07 | 0.00 | 78 | 1016.0 |
| 20260831131014 | 73 | 288 | 1.7 | 5.2 | 0.00 | 0.07 | 0.00 | 79 | 1016.1 |
| 20260831130510 | 73 | 247 | 1.7 | 3.5 | 0.00 | 0.07 | 0.00 | 80 | 1016.0 |
| 20260831130104 | 72 | 307 | 0.9 | 2.6 | 0.00 | 0.07 | 0.00 | 81 | 1016.1 |
| 20260831130024 | 72 | 261 | 0.9 | 2.6 | 0.00 | 0.07 | 0.00 | 81 | 1015.9 |
| 20260831125513 | 71 | 165 | 0.9 | 2.6 | 0.00 | 0.07 | 0.00 | 82 | 1015.9 |
| 20260831125017 | 71 | 217 | 0.9 | 3.5 | 0.00 | 0.07 | 0.00 | 83 | 1015.9 |
| 20260831124606 | 70 | 328 | 0.9 | 3.5 | 0.00 | 0.07 | 0.00 | 83 | 1016.0 |
| 20260831124532 | 70 | 232 | 0.9 | 3.5 | 0.00 | 0.07 | 0.00 | 83 | 1016.0 |
| 20260831124020 | 70 | 258 | 0.9 | 3.5 | 0.00 | 0.07 | 0.00 | 82 | 1015.9 |
| 20260831123514 | 71 | 293 | 0.9 | 2.6 | 0.00 | 0.07 | 0.00 | 82 | 1015.9 |
| 20260831123106 | 71 | 295 | 0.9 | 2.6 | 0.00 | 0.07 | 0.00 | 82 | 1015.9 |
| 20260831123030 | 71 | 234 | 0.9 | 2.6 | 0.00 | 0.07 | 0.00 | 83 | 1015.8 |
| 20260831122518 | 70 | 235 | 0.9 | 2.6 | 0.00 | 0.07 | 0.00 | 83 | 1015.8 |
| 20260831122019 | 70 | 237 | 0.9 | 2.6 | 0.00 | 0.07 | 0.00 | 84 | 1015.8 |
| 20260831121626 | 70 | 287 | 0.9 | 2.6 | 0.00 | 0.07 | 0.00 | 84 | 1015.8 |
| 20260831121532 | 70 | 300 | 0.9 | 2.6 | 0.00 | 0.07 | 0.00 | 84 | 1015.7 |
| 20260831121016 | 70 | 287 | 0.9 | 2.6 | 0.00 | 0.07 | 0.00 | 84 | 1015.6 |
| 20260831120519 | 70 | 341 | 0.9 | 3.5 | 0.00 | 0.07 | 0.00 | 84 | 1015.6 |
| 20260831120115 | 69 | 257 | 0.9 | 3.5 | 0.00 | 0.07 | 0.00 | 84 | 1015.6 |
| 20260831120031 | 69 | 303 | 0.9 | 3.5 | 0.00 | 0.07 | 0.00 | 84 | 1015.6 |
| 20260831115509 | 69 | 286 | 0.9 | 3.5 | 0.00 | 0.07 | 0.00 | 84 | 1015.5 |
| 20260831115011 | 69 | 306 | 0.9 | 2.6 | 0.00 | 0.07 | 0.00 | 84 | 1015.5 |
| 20260831114624 | 69 | 290 | 0.9 | 3.5 | 0.00 | 0.07 | 0.00 | 83 | 1015.5 |
| 20260831114531 | 69 | 292 | 0.9 | 3.5 | 0.00 | 0.07 | 0.00 | 83 | 1015.4 |
| 20260831114003 | 70 | 287 | 0.9 | 3.5 | 0.00 | 0.07 | 0.00 | 83 | 1015.3 |
| 20260831113504 | 70 | 274 | 1.7 | 2.6 | 0.00 | 0.07 | 0.00 | 83 | 1015.3 |
| 20260831113125 | 70 | 270 | 0.9 | 3.5 | 0.00 | 0.07 | 0.00 | 83 | 1015.4 |
| 20260831113007 | 70 | 276 | 0.9 | 3.5 | 0.00 | 0.07 | 0.00 | 83 | 1015.3 |
| 20260831112506 | 70 | 285 | 0.9 | 4.3 | 0.00 | 0.07 | 0.00 | 83 | 1015.3 |
| 20260831112003 | 70 | 277 | 1.7 | 4.3 | 0.00 | 0.07 | 0.00 | 83 | 1015.3 |
| 20260831111604 | 70 | 279 | 1.7 | 3.5 | 0.00 | 0.07 | 0.00 | 83 | 1015.4 |
| 20260831111523 | 70 | 319 | 1.7 | 3.5 | 0.00 | 0.07 | 0.00 | 83 | 1015.3 |
| 20260831111010 | 70 | 221 | 0.9 | 3.5 | 0.00 | 0.07 | 0.00 | 83 | 1015.3 |
| 20260831110508 | 69 | 288 | 1.7 | 3.5 | 0.00 | 0.07 | 0.00 | 83 | 1015.2 |
| 20260831110106 | 69 | 290 | 0.9 | 2.6 | 0.00 | 0.07 | 0.00 | 83 | 1015.3 |
| 20260831110018 | 69 | 297 | 0.9 | 2.6 | 0.00 | 0.07 | 0.00 | 83 | 1015.3 |
| 20260831105507 | 69 | 217 | 0.9 | 3.5 | 0.00 | 0.07 | 0.00 | 84 | 1015.3 |
| 20260831105011 | 69 | 257 | 1.7 | 3.5 | 0.00 | 0.07 | 0.00 | 83 | 1015.3 |
| 20260831104615 | 69 | 285 | 1.7 | 3.5 | 0.00 | 0.07 | 0.00 | 83 | 1015.4 |
| 20260831104533 | 69 | 273 | 1.7 | 3.5 | 0.00 | 0.07 | 0.00 | 83 | 1015.3 |
| 20260831104010 | 70 | 278 | 0.9 | 3.5 | 0.00 | 0.07 | 0.00 | 83 | 1015.3 |
| 20260831103514 | 70 | 286 | 0.9 | 3.5 | 0.00 | 0.07 | 0.00 | 83 | 1015.3 |
| 20260831103111 | 70 | 317 | 1.7 | 3.5 | 0.00 | 0.07 | 0.00 | 83 | 1015.3 |
| 20260831103004 | 70 | 250 | 1.7 | 3.5 | 0.00 | 0.07 | 0.00 | 82 | 1015.3 |
| 20260831102504 | 70 | 248 | 0.9 | 3.5 | 0.00 | 0.07 | 0.00 | 82 | 1015.3 |
| 20260831102004 | 70 | 281 | 0.9 | 2.6 | 0.00 | 0.07 | 0.00 | 82 | 1015.3 |
| 20260831101605 | 70 | 271 | 0.9 | 3.5 | 0.00 | 0.07 | 0.00 | 82 | 1015.3 |
| 20260831101511 | 70 | 283 | 0.9 | 3.5 | 0.00 | 0.07 | 0.00 | 82 | 1015.2 |
| 20260831101005 | 70 | 286 | 1.7 | 3.5 | 0.00 | 0.07 | 0.00 | 82 | 1015.1 |
| 20260831100504 | 70 | 268 | 1.7 | 3.5 | 0.00 | 0.07 | 0.00 | 82 | 1015.0 |
| 20260831100104 | 70 | 245 | 0.9 | 3.5 | 0.00 | 0.07 | 0.00 | 82 | 1015.1 |
| 20260831100019 | 70 | 278 | 0.9 | 3.5 | 0.00 | 0.07 | 0.00 | 82 | 1015.1 |
| 20260831095507 | 70 | 282 | 0.9 | 2.6 | 0.00 | 0.07 | 0.00 | 82 | 1015.0 |
| 20260831095010 | 70 | 268 | 0.9 | 2.6 | 0.00 | 0.07 | 0.00 | 82 | 1015.0 |
| 20260831094609 | 70 | 48 | 0.9 | 2.6 | 0.00 | 0.07 | 0.00 | 82 | 1015.1 |
| 20260831094530 | 70 | 285 | 0.9 | 2.6 | 0.00 | 0.07 | 0.00 | 82 | 1015.1 |
| 20260831094012 | 70 | 290 | 0.9 | 2.6 | 0.00 | 0.07 | 0.00 | 82 | 1015.1 |
| 20260831093511 | 70 | 242 | 0.9 | 2.6 | 0.00 | 0.07 | 0.00 | 82 | 1015.1 |
| 20260831093155 | 70 | 288 | 0.9 | 3.5 | 0.00 | 0.07 | 0.00 | 82 | 1015.1 |
| 20260831093026 | 70 | 307 | 0.9 | 3.5 | 0.00 | 0.07 | 0.00 | 82 | 1015.1 |
| 20260831092514 | 70 | 261 | 0.9 | 3.5 | 0.00 | 0.07 | 0.00 | 82 | 1015.2 |
| 20260831092014 | 70 | 274 | 1.7 | 2.6 | 0.00 | 0.07 | 0.00 | 82 | 1015.2 |
| 20260831091606 | 70 | 293 | 0.9 | 2.6 | 0.00 | 0.07 | 0.00 | 82 | 1015.2 |
| 20260831091508 | 70 | 281 | 0.9 | 2.6 | 0.00 | 0.07 | 0.00 | 82 | 1015.2 |
| 20260831091003 | 70 | 282 | 0.9 | 2.6 | 0.00 | 0.07 | 0.00 | 81 | 1015.3 |
| 20260831090506 | 70 | 313 | 0.9 | 2.6 | 0.00 | 0.07 | 0.00 | 81 | 1015.2 |
| 20260831090107 | 70 | 46 | 0.9 | 2.6 | 0.00 | 0.07 | 0.00 | 81 | 1015.3 |
| 20260831090014 | 70 | 259 | 0.9 | 2.6 | 0.00 | 0.07 | 0.00 | 81 | 1015.2 |
| 20260831085504 | 70 | 264 | 0.9 | 2.6 | 0.00 | 0.07 | 0.00 | 81 | 1015.2 |
| 20260831085008 | 70 | 288 | 0.9 | 2.6 | 0.00 | 0.07 | 0.00 | 82 | 1015.2 |
| 20260831084653 | 70 | 232 | 0.9 | 2.6 | 0.00 | 0.07 | 0.00 | 82 | 1015.3 |
| 20260831084518 | 70 | 288 | 0.9 | 2.6 | 0.00 | 0.07 | 0.00 | 82 | 1015.2 |
| 20260831084007 | 70 | 205 | 0.9 | 2.6 | 0.00 | 0.07 | 0.00 | 82 | 1015.2 |
| 20260831083511 | 71 | 238 | 0.9 | 2.6 | 0.00 | 0.07 | 0.00 | 82 | 1015.1 |
| 20260831083110 | 71 | 214 | 0.9 | 1.7 | 0.00 | 0.07 | 0.00 | 81 | 1015.1 |
| 20260831083027 | 71 | 249 | 0.9 | 1.7 | 0.00 | 0.07 | 0.00 | 81 | 1015.1 |
| 20260831082510 | 71 | 314 | 0.0 | 1.7 | 0.00 | 0.07 | 0.00 | 81 | 1015.0 |
| 20260831082016 | 71 | 224 | 0.9 | 2.6 | 0.00 | 0.07 | 0.00 | 81 | 1015.1 |
| 20260831081605 | 71 | 116 | 0.0 | 2.6 | 0.00 | 0.07 | 0.00 | 80 | 1015.1 |
| 20260831081530 | 71 | 250 | 0.0 | 2.6 | 0.00 | 0.07 | 0.00 | 80 | 1015.0 |
| 20260831081016 | 71 | 248 | 0.0 | 1.7 | 0.00 | 0.07 | 0.00 | 80 | 1015.0 |
| 20260831080519 | 71 | 306 | 0.0 | 1.7 | 0.00 | 0.07 | 0.00 | 81 | 1015.0 |
| 20260831080125 | 71 | 227 | 0.0 | 1.7 | 0.00 | 0.07 | 0.00 | 81 | 1015.0 |
| 20260831080022 | 71 | 245 | 0.0 | 1.7 | 0.00 | 0.07 | 0.00 | 81 | 1015.0 |
| 20260831075503 | 71 | 50 | 0.0 | 1.7 | 0.00 | 0.07 | 0.00 | 81 | 1015.0 |
| 20260831075004 | 71 | 293 | 0.0 | 1.7 | 0.00 | 0.07 | 0.00 | 81 | 1015.0 |
| 20260831074607 | 71 | 257 | 0.9 | 2.6 | 0.00 | 0.07 | 0.00 | 81 | 1015.0 |
| 20260831074515 | 71 | 355 | 0.9 | 2.6 | 0.00 | 0.07 | 0.00 | 81 | 1015.0 |
| 20260831074006 | 71 | 274 | 0.9 | 2.6 | 0.00 | 0.07 | 0.00 | 81 | 1015.1 |
| 20260831073507 | 71 | 37 | 0.0 | 1.7 | 0.00 | 0.07 | 0.00 | 81 | 1015.1 |
| 20260831073104 | 71 | 266 | 0.0 | 1.7 | 0.00 | 0.07 | 0.00 | 82 | 1015.2 |
| 20260831073030 | 71 | 266 | 0.0 | 1.7 | 0.00 | 0.07 | 0.00 | 82 | 1015.2 |
| 20260831072510 | 71 | 301 | 0.0 | 0.9 | 0.00 | 0.07 | 0.00 | 81 | 1015.3 |
| 20260831072016 | 71 | 283 | 0.0 | 0.9 | 0.00 | 0.07 | 0.00 | 81 | 1015.3 |
| 20260831071612 | 71 | 168 | 0.0 | 1.7 | 0.00 | 0.07 | 0.00 | 81 | 1015.4 |
| 20260831071527 | 71 | 359 | 0.0 | 1.7 | 0.00 | 0.07 | 0.00 | 81 | 1015.3 |
| 20260831071015 | 71 | 239 | 0.0 | 1.7 | 0.00 | 0.07 | 0.00 | 80 | 1015.4 |
| 20260831070511 | 71 | 152 | 0.0 | 1.7 | 0.00 | 0.07 | 0.00 | 80 | 1015.4 |
| 20260831070107 | 71 | 270 | 0.0 | 1.7 | 0.00 | 0.07 | 0.00 | 80 | 1015.4 |
| 20260831070032 | 71 | 300 | 0.0 | 1.7 | 0.00 | 0.07 | 0.00 | 80 | 1015.4 |
| 20260831065517 | 71 | 243 | 0.9 | 1.7 | 0.00 | 0.07 | 0.00 | 80 | 1015.4 |
| 20260831065015 | 71 | 257 | 0.9 | 1.7 | 0.00 | 0.07 | 0.00 | 79 | 1015.4 |
| 20260831064610 | 71 | 176 | 0.0 | 0.9 | 0.00 | 0.07 | 0.00 | 79 | 1015.5 |
| 20260831064510 | 71 | 282 | 0.0 | 0.9 | 0.00 | 0.07 | 0.00 | 79 | 1015.5 |
| 20260831064007 | 72 | 285 | 0.0 | 0.9 | 0.00 | 0.07 | 0.00 | 79 | 1015.5 |
| 20260831063504 | 72 | 278 | 0.0 | 0.9 | 0.00 | 0.07 | 0.00 | 79 | 1015.5 |
| 20260831063113 | 72 | 253 | 0.0 | 2.6 | 0.00 | 0.07 | 0.00 | 79 | 1015.6 |
| 20260831063021 | 72 | 270 | 0.0 | 2.6 | 0.00 | 0.07 | 0.00 | 79 | 1015.6 |
| 20260831062510 | 72 | 272 | 0.0 | 2.6 | 0.00 | 0.07 | 0.00 | 79 | 1015.6 |
| 20260831062013 | 72 | 160 | 0.0 | 2.6 | 0.00 | 0.07 | 0.00 | 78 | 1015.5 |
| 20260831061605 | 72 | 0 | 0.0 | 2.6 | 0.00 | 0.07 | 0.00 | 78 | 1015.7 |
| 20260831061525 | 72 | 144 | 0.0 | 2.6 | 0.00 | 0.07 | 0.00 | 78 | 1015.5 |
| 20260831061013 | 72 | 331 | 0.0 | 2.6 | 0.00 | 0.07 | 0.00 | 78 | 1015.5 |
| 20260831060512 | 72 | 167 | 0.0 | 2.6 | 0.00 | 0.07 | 0.00 | 77 | 1015.5 |
| 20260831060127 | 72 | 343 | 0.0 | 1.7 | 0.00 | 0.07 | 0.00 | 77 | 1015.6 |
| 20260831060033 | 72 | 122 | 0.0 | 1.7 | 0.00 | 0.07 | 0.00 | 77 | 1015.5 |
| 20260831055516 | 72 | 176 | 0.0 | 1.7 | 0.00 | 0.07 | 0.00 | 77 | 1015.6 |
| 20260831055016 | 72 | 226 | 0.0 | 0.9 | 0.00 | 0.07 | 0.00 | 77 | 1015.6 |
| 20260831054603 | 73 | 250 | 0.0 | 0.9 | 0.00 | 0.07 | 0.00 | 77 | 1015.7 |
| 20260831054531 | 73 | 273 | 0.0 | 0.9 | 0.00 | 0.07 | 0.00 | 77 | 1015.6 |
| 20260831054017 | 73 | 178 | 0.0 | 0.9 | 0.00 | 0.07 | 0.00 | 77 | 1015.7 |
| 20260831053516 | 72 | 238 | 0.0 | 1.7 | 0.00 | 0.07 | 0.00 | 78 | 1015.7 |
| 20260831053111 | 72 | 45 | 0.0 | 1.7 | 0.00 | 0.07 | 0.00 | 78 | 1015.7 |
| 20260831053015 | 72 | 45 | 0.0 | 1.7 | 0.00 | 0.07 | 0.00 | 78 | 1015.7 |
| 20260831052504 | 72 | 224 | 0.0 | 1.7 | 0.00 | 0.07 | 0.00 | 78 | 1015.8 |
| 20260831052008 | 73 | 225 | 0.0 | 1.7 | 0.00 | 0.07 | 0.00 | 78 | 1015.9 |
| 20260831051602 | 73 | 0 | 0.0 | 0.9 | 0.00 | 0.07 | 0.00 | 78 | 1015.9 |
| 20260831051519 | 73 | 139 | 0.0 | 0.9 | 0.00 | 0.07 | 0.00 | 78 | 1015.9 |
| 20260831051007 | 73 | 250 | 0.0 | 0.9 | 0.00 | 0.07 | 0.00 | 78 | 1015.9 |
| 20260831050511 | 73 | 131 | 0.0 | 1.7 | 0.00 | 0.07 | 0.00 | 77 | 1015.9 |
| 20260831050118 | 73 | 243 | 0.0 | 1.7 | 0.00 | 0.07 | 0.00 | 77 | 1015.8 |
| 20260831050027 | 73 | 251 | 0.0 | 1.7 | 0.00 | 0.07 | 0.00 | 77 | 1015.8 |
| 20260831045513 | 73 | 58 | 0.0 | 0.9 | 0.00 | 0.07 | 0.07 | 77 | 1015.7 |
| 20260831045012 | 73 | 136 | 0.0 | 0.9 | 0.00 | 0.07 | 0.07 | 77 | 1015.7 |
| 20260831044602 | 73 | 227 | 0.0 | 1.7 | 0.00 | 0.07 | 0.07 | 77 | 1015.8 |
| 20260831044531 | 73 | 224 | 0.0 | 0.9 | 0.00 | 0.07 | 0.07 | 77 | 1015.7 |
| 20260831044014 | 73 | 154 | 0.0 | 1.7 | 0.00 | 0.07 | 0.07 | 77 | 1015.7 |
| 20260831043519 | 73 | 273 | 0.0 | 1.7 | 0.00 | 0.07 | 0.07 | 77 | 1015.7 |
| 20260831043103 | 73 | 77 | 0.0 | 1.7 | 0.00 | 0.07 | 0.07 | 78 | 1015.7 |
| 20260831043034 | 73 | 219 | 0.0 | 1.7 | 0.00 | 0.07 | 0.07 | 78 | 1015.8 |
| 20260831042518 | 73 | 158 | 0.0 | 1.7 | 0.00 | 0.07 | 0.07 | 77 | 1015.8 |
| 20260831042004 | 73 | 339 | 0.0 | 0.9 | 0.00 | 0.07 | 0.07 | 78 | 1015.9 |
| 20260831041606 | 73 | 0 | 0.0 | 0.9 | 0.00 | 0.07 | 0.07 | 78 | 1016.0 |
| 20260831041516 | 73 | 213 | 0.0 | 0.9 | 0.00 | 0.07 | 0.07 | 78 | 1015.9 |
| 20260831041008 | 73 | 153 | 0.0 | 0.9 | 0.00 | 0.07 | 0.07 | 78 | 1015.9 |
| 20260831040508 | 73 | 219 | 0.0 | 0.9 | 0.00 | 0.07 | 0.07 | 78 | 1015.9 |
| 20260831040106 | 73 | 153 | 0.0 | 0.9 | 0.00 | 0.07 | 0.07 | 78 | 1015.9 |
| 20260831040026 | 73 | 153 | 0.0 | 0.9 | 0.00 | 0.07 | 0.07 | 78 | 1015.8 |
| 20260831035510 | 73 | 162 | 0.0 | 0.9 | 0.00 | 0.07 | 0.07 | 78 | 1015.8 |
| 20260831035009 | 73 | 204 | 0.0 | 0.9 | 0.00 | 0.07 | 0.07 | 78 | 1015.8 |
| 20260831034612 | 73 | 0 | 0.0 | 1.7 | 0.00 | 0.07 | 0.07 | 79 | 1015.8 |
| 20260831034526 | 73 | 278 | 0.0 | 0.9 | 0.00 | 0.07 | 0.07 | 78 | 1015.8 |
| 20260831034015 | 73 | 269 | 0.0 | 1.7 | 0.00 | 0.07 | 0.07 | 79 | 1015.8 |
| 20260831033513 | 73 | 212 | 0.0 | 1.7 | 0.00 | 0.07 | 0.07 | 79 | 1015.8 |
| 20260831033107 | 72 | 174 | 0.0 | 1.7 | 0.00 | 0.07 | 0.07 | 81 | 1015.8 |
| 20260831033031 | 72 | 174 | 0.0 | 1.7 | 0.00 | 0.07 | 0.07 | 81 | 1015.8 |
| 20260831032516 | 72 | 212 | 0.0 | 1.7 | 0.00 | 0.07 | 0.07 | 82 | 1015.8 |
| 20260831032014 | 72 | 171 | 0.0 | 1.7 | 0.00 | 0.07 | 0.07 | 83 | 1015.9 |
| 20260831031605 | 72 | 153 | 0.0 | 1.7 | 0.00 | 0.07 | 0.07 | 84 | 1015.9 |
| 20260831031540 | 71 | 153 | 0.0 | 1.7 | 0.00 | 0.07 | 0.07 | 84 | 1016.0 |
| 20260831031013 | 71 | 148 | 0.0 | 0.9 | 0.00 | 0.07 | 0.07 | 86 | 1016.0 |
| 20260831030507 | 71 | 178 | 0.0 | 0.9 | 0.00 | 0.07 | 0.07 | 87 | 1016.0 |
| 20260831030106 | 71 | 0 | 0.0 | 0.9 | 0.00 | 0.07 | 0.07 | 88 | 1016.0 |
| 20260831030017 | 71 | 178 | 0.0 | 0.9 | 0.00 | 0.07 | 0.07 | 88 | 1015.9 |
| 20260831025510 | 71 | 102 | 0.0 | 0.9 | 0.00 | 0.07 | 0.07 | 89 | 1015.7 |
| 20260831025011 | 71 | 91 | 0.0 | 1.7 | 0.00 | 0.07 | 0.07 | 90 | 1015.9 |
| 20260831024603 | 71 | 96 | 0.0 | 1.7 | 0.00 | 0.07 | 0.07 | 90 | 1016.0 |
| 20260831024521 | 71 | 96 | 0.0 | 1.7 | 0.00 | 0.07 | 0.07 | 90 | 1016.0 |
| 20260831024012 | 71 | 86 | 0.0 | 0.9 | 0.00 | 0.07 | 0.07 | 90 | 1016.2 |
| 20260831023512 | 71 | 83 | 0.0 | 1.7 | 0.00 | 0.07 | 0.07 | 90 | 1016.3 |
| 20260831023110 | 71 | 83 | 0.0 | 1.7 | 0.00 | 0.07 | 0.07 | 90 | 1016.3 |
| 20260831023029 | 71 | 83 | 0.0 | 1.7 | 0.00 | 0.07 | 0.07 | 90 | 1016.3 |
| 20260831022513 | 71 | 84 | 0.0 | 0.9 | 0.00 | 0.07 | 0.07 | 90 | 1016.2 |
| 20260831022003 | 71 | 84 | 0.0 | 0.0 | 0.00 | 0.07 | 0.07 | 90 | 1016.2 |
| 20260831021607 | 71 | 0 | 0.0 | 0.0 | 0.00 | 0.07 | 0.07 | 90 | 1016.2 |
| 20260831021508 | 71 | 84 | 0.0 | 0.0 | 0.00 | 0.07 | 0.07 | 90 | 1016.2 |
| 20260831021004 | 72 | 84 | 0.0 | 0.0 | 0.00 | 0.07 | 0.07 | 90 | 1016.1 |
| 20260831020505 | 72 | 84 | 0.0 | 0.0 | 0.00 | 0.07 | 0.07 | 89 | 1016.1 |
| 20260831020109 | 72 | 0 | 0.0 | 0.0 | 0.00 | 0.07 | 0.07 | 89 | 1016.0 |
| 20260831020014 | 72 | 84 | 0.0 | 0.0 | 0.00 | 0.07 | 0.07 | 88 | 1016.0 |
| 20260831015508 | 73 | 84 | 0.0 | 0.0 | 0.00 | 0.07 | 0.07 | 87 | 1015.9 |
| 20260831015008 | 73 | 84 | 0.0 | 0.0 | 0.00 | 0.07 | 0.07 | 87 | 1016.0 |
| 20260831014626 | 73 | 0 | 0.0 | 0.0 | 0.00 | 0.07 | 0.07 | 86 | 1015.8 |
| 20260831014518 | 73 | 84 | 0.0 | 0.0 | 0.00 | 0.07 | 0.07 | 86 | 1015.8 |
| 20260831014014 | 74 | 84 | 0.0 | 0.0 | 0.00 | 0.07 | 0.07 | 86 | 1015.8 |
| 20260831013511 | 74 | 84 | 0.0 | 0.0 | 0.00 | 0.07 | 0.07 | 85 | 1016.0 |
| 20260831013107 | 74 | 0 | 0.0 | 0.0 | 0.00 | 0.07 | 0.07 | 86 | 1015.9 |
| 20260831013025 | 74 | 84 | 0.0 | 0.0 | 0.00 | 0.07 | 0.07 | 86 | 1016.0 |
| 20260831012512 | 75 | 84 | 0.0 | 0.0 | 0.00 | 0.07 | 0.07 | 86 | 1015.9 |
| 20260831012014 | 75 | 84 | 0.0 | 0.0 | 0.00 | 0.07 | 0.07 | 85 | 1015.9 |
| 20260831011605 | 75 | 0 | 0.0 | 0.9 | 0.00 | 0.07 | 0.07 | 85 | 1015.7 |
| 20260831011530 | 75 | 84 | 0.0 | 0.9 | 0.00 | 0.07 | 0.07 | 85 | 1015.8 |
| 20260831011015 | 75 | 84 | 0.0 | 0.9 | 0.00 | 0.07 | 0.07 | 85 | 1015.8 |
| 20260831010504 | 75 | 84 | 0.9 | 0.9 | 0.00 | 0.07 | 0.07 | 86 | 1015.6 |
| 20260831010109 | 75 | 96 | 0.0 | 0.9 | 0.00 | 0.07 | 0.07 | 86 | 1015.4 |
| 20260831010009 | 75 | 90 | 0.0 | 0.9 | 0.00 | 0.07 | 0.07 | 86 | 1015.5 |
| 20260831004605 | 76 | 0 | 0.0 | 0.9 | 0.00 | 0.07 | 0.07 | 86 | 1015.4 |
| 20260831004515 | 76 | 96 | 0.0 | 0.9 | 0.00 | 0.07 | 0.07 | 86 | 1015.5 |
| 20260831004010 | 76 | 96 | 0.0 | 0.9 | 0.00 | 0.07 | 0.07 | 85 | 1015.5 |
| 20260831003509 | 77 | 101 | 0.0 | 0.9 | 0.00 | 0.07 | 0.07 | 84 | 1015.6 |
| 20260831003107 | 77 | 102 | 0.0 | 0.9 | 0.00 | 0.07 | 0.07 | 84 | 1015.6 |
| 20260831003023 | 77 | 101 | 0.0 | 0.9 | 0.00 | 0.07 | 0.07 | 83 | 1015.7 |
| 20260831002510 | 78 | 101 | 0.0 | 0.0 | 0.00 | 0.07 | 0.07 | 82 | 1015.8 |
| 20260831002012 | 78 | 103 | 0.0 | 0.0 | 0.00 | 0.07 | 0.07 | 80 | 1015.8 |
| 20260831001620 | 78 | 0 | 0.0 | 0.0 | 0.00 | 0.07 | 0.07 | 80 | 1015.7 |
| 20260831001527 | 78 | 205 | 0.0 | 0.0 | 0.00 | 0.07 | 0.07 | 79 | 1015.8 |
| 20260831001015 | 79 | 205 | 0.0 | 0.0 | 0.00 | 0.07 | 0.07 | 78 | 1015.8 |
| 20260831000516 | 79 | 205 | 0.0 | 0.9 | 0.00 | 0.07 | 0.07 | 77 | 1015.8 |
| 20260831000110 | 79 | 0 | 0.0 | 0.9 | 0.00 | 0.07 | 0.07 | 75 | 1015.7 |
| 20260831000035 | 79 | 205 | 0.0 | 0.9 | 0.00 | 0.07 | 0.07 | 75 | 1015.8 |
| 20260830235513 | 80 | 210 | 0.0 | 0.9 | 0.00 | 0.07 | 0.07 | 75 | 1015.7 |
| 20260830235005 | 80 | 210 | 0.0 | 0.0 | 0.00 | 0.07 | 0.07 | 74 | 1015.8 |
| 20260830234613 | 81 | 0 | 0.0 | 0.0 | 0.00 | 0.07 | 0.07 | 74 | 1015.7 |
| 20260830234522 | 81 | 228 | 0.0 | 0.0 | 0.00 | 0.07 | 0.07 | 74 | 1015.8 |
| 20260830234005 | 81 | 228 | 0.0 | 0.0 | 0.00 | 0.07 | 0.07 | 73 | 1015.8 |
| 20260830233508 | 82 | 228 | 0.0 | 0.0 | 0.00 | 0.07 | 0.07 | 72 | 1015.8 |
| 20260830233133 | 83 | 0 | 0.0 | 0.9 | 0.00 | 0.07 | 0.07 | 71 | 1015.8 |
| 20260830233017 | 83 | 228 | 0.0 | 0.9 | 0.00 | 0.07 | 0.07 | 70 | 1015.9 |
| 20260830232511 | 84 | 229 | 0.0 | 0.9 | 0.00 | 0.07 | 0.07 | 68 | 1015.8 |
| 20260830232015 | 85 | 227 | 0.0 | 0.0 | 0.00 | 0.07 | 0.07 | 67 | 1015.8 |
| 20260830231605 | 85 | 0 | 0.0 | 0.9 | 0.00 | 0.07 | 0.07 | 66 | 1015.8 |
| 20260830231524 | 85 | 304 | 0.0 | 0.9 | 0.00 | 0.07 | 0.07 | 66 | 1015.8 |
| 20260830231015 | 86 | 304 | 0.0 | 0.9 | 0.00 | 0.07 | 0.07 | 65 | 1015.8 |
| 20260830230511 | 86 | 262 | 0.0 | 0.9 | 0.00 | 0.07 | 0.07 | 65 | 1015.8 |
| 20260830230120 | 86 | 0 | 0.0 | 0.9 | 0.00 | 0.07 | 0.07 | 65 | 1015.7 |
| 20260830230031 | 86 | 205 | 0.0 | 0.9 | 0.00 | 0.07 | 0.07 | 66 | 1015.8 |
| 20260830225513 | 86 | 262 | 0.0 | 0.9 | 0.00 | 0.07 | 0.07 | 65 | 1015.8 |
| 20260830225016 | 86 | 151 | 0.0 | 1.7 | 0.00 | 0.07 | 0.07 | 66 | 1015.7 |
| 20260830224601 | 85 | 0 | 0.0 | 1.7 | 0.00 | 0.07 | 0.07 | 69 | 1015.7 |
| 20260830224531 | 85 | 222 | 0.0 | 1.7 | 0.00 | 0.07 | 0.07 | 68 | 1015.7 |
| 20260830224015 | 85 | 195 | 0.0 | 0.9 | 0.00 | 0.07 | 0.07 | 68 | 1015.6 |
| 20260830223504 | 84 | 243 | 0.0 | 0.9 | 0.00 | 0.07 | 0.07 | 70 | 1015.7 |
| 20260830223104 | 84 | 0 | 0.0 | 0.9 | 0.00 | 0.07 | 0.07 | 69 | 1015.8 |
| 20260830223016 | 84 | 239 | 0.0 | 0.9 | 0.00 | 0.07 | 0.07 | 70 | 1015.8 |
| 20260830222507 | 84 | 254 | 0.0 | 0.9 | 0.00 | 0.07 | 0.07 | 67 | 1015.8 |
| 20260830222012 | 84 | 198 | 0.0 | 0.9 | 0.00 | 0.07 | 0.07 | 67 | 1015.6 |
| 20260830221610 | 84 | 196 | 0.0 | 1.7 | 0.00 | 0.07 | 0.07 | 68 | 1015.5 |
| 20260830221529 | 84 | 202 | 0.0 | 1.7 | 0.00 | 0.07 | 0.07 | 69 | 1015.5 |
| 20260830221010 | 83 | 256 | 0.0 | 3.5 | 0.00 | 0.07 | 0.07 | 68 | 1015.3 |
| 20260830220510 | 83 | 243 | 0.9 | 3.5 | 0.00 | 0.07 | 0.07 | 68 | 1015.2 |
| 20260830220109 | 83 | 242 | 0.9 | 3.5 | 0.00 | 0.07 | 0.07 | 69 | 1015.2 |
| 20260830220030 | 83 | 207 | 0.9 | 3.5 | 0.00 | 0.07 | 0.07 | 68 | 1015.1 |
| 20260830215512 | 84 | 6 | 0.9 | 4.3 | 0.00 | 0.07 | 0.07 | 69 | 1014.9 |
| 20260830215014 | 84 | 174 | 1.7 | 4.3 | 0.00 | 0.07 | 0.07 | 68 | 1015.0 |
| 20260830214606 | 84 | 56 | 1.7 | 4.3 | 0.00 | 0.07 | 0.07 | 67 | 1015.0 |
| 20260830214530 | 84 | 141 | 1.7 | 4.3 | 0.00 | 0.07 | 0.07 | 67 | 1015.0 |
| 20260830214013 | 84 | 317 | 0.9 | 4.3 | 0.00 | 0.07 | 0.07 | 68 | 1015.0 |
| 20260830213516 | 85 | 290 | 1.7 | 4.3 | 0.00 | 0.07 | 0.07 | 67 | 1014.9 |
| 20260830213103 | 85 | 130 | 1.7 | 4.3 | 0.00 | 0.07 | 0.07 | 67 | 1015.0 |
| 20260830213030 | 85 | 226 | 1.7 | 4.3 | 0.00 | 0.07 | 0.07 | 67 | 1014.9 |
| 20260830212519 | 85 | 283 | 1.7 | 4.3 | 0.00 | 0.07 | 0.07 | 70 | 1014.9 |
| 20260830212008 | 84 | 272 | 1.7 | 4.3 | 0.00 | 0.07 | 0.07 | 69 | 1014.9 |
| 20260830211603 | 84 | 285 | 0.9 | 3.5 | 0.00 | 0.07 | 0.07 | 68 | 1015.0 |
| 20260830211515 | 84 | 52 | 0.9 | 3.5 | 0.00 | 0.07 | 0.07 | 68 | 1015.0 |
| 20260830211008 | 84 | 254 | 1.7 | 3.5 | 0.00 | 0.07 | 0.07 | 69 | 1015.0 |
| 20260830210509 | 84 | 120 | 0.9 | 3.5 | 0.00 | 0.07 | 0.07 | 71 | 1015.1 |
| 20260830210106 | 84 | 165 | 0.9 | 3.5 | 0.00 | 0.07 | 0.07 | 71 | 1015.3 |
| 20260830210027 | 84 | 62 | 0.9 | 3.5 | 0.00 | 0.07 | 0.07 | 72 | 1015.3 |
| 20260830205512 | 84 | 292 | 0.9 | 2.6 | 0.00 | 0.07 | 0.07 | 72 | 1015.5 |
| 20260830205011 | 84 | 139 | 0.9 | 2.6 | 0.00 | 0.07 | 0.07 | 72 | 1015.6 |
| 20260830204606 | 84 | 221 | 0.9 | 3.5 | 0.00 | 0.07 | 0.07 | 71 | 1015.8 |
| 20260830204536 | 84 | 214 | 0.9 | 2.6 | 0.00 | 0.07 | 0.07 | 71 | 1015.7 |
| 20260830204014 | 84 | 145 | 0.9 | 3.5 | 0.00 | 0.07 | 0.07 | 72 | 1015.7 |
| 20260830203516 | 84 | 225 | 1.7 | 3.5 | 0.00 | 0.07 | 0.07 | 69 | 1015.8 |
| 20260830203104 | 85 | 276 | 0.9 | 5.2 | 0.00 | 0.07 | 0.07 | 68 | 1015.7 |
| 20260830203038 | 85 | 313 | 0.9 | 3.5 | 0.00 | 0.07 | 0.07 | 68 | 1015.8 |
| 20260830202514 | 85 | 258 | 1.7 | 5.2 | 0.00 | 0.07 | 0.07 | 67 | 1015.7 |
| 20260830202016 | 85 | 71 | 1.7 | 5.2 | 0.00 | 0.07 | 0.07 | 65 | 1015.8 |
| 20260830201606 | 86 | 40 | 1.7 | 4.3 | 0.00 | 0.07 | 0.07 | 66 | 1015.7 |
| 20260830201532 | 86 | 41 | 1.7 | 4.3 | 0.00 | 0.07 | 0.07 | 65 | 1015.8 |
| 20260830201015 | 86 | 314 | 1.7 | 5.2 | 0.00 | 0.07 | 0.07 | 65 | 1015.9 |
| 20260830200508 | 86 | 273 | 0.9 | 5.2 | 0.00 | 0.07 | 0.07 | 67 | 1015.9 |
| 20260830200029 | 86 | 310 | 1.7 | 4.3 | 0.00 | 0.07 | 0.07 | 68 | 1016.0 |
| 20260830195509 | 86 | 271 | 1.7 | 4.3 | 0.00 | 0.07 | 0.07 | 67 | 1015.9 |
| 20260830195008 | 86 | 216 | 1.7 | 4.3 | 0.00 | 0.07 | 0.07 | 70 | 1015.9 |
| 20260830194616 | 85 | 337 | 1.7 | 3.5 | 0.00 | 0.07 | 0.07 | 71 | 1016.0 |
| 20260830194525 | 85 | 286 | 1.7 | 3.5 | 0.00 | 0.07 | 0.07 | 70 | 1015.9 |
| 20260830194015 | 85 | 154 | 1.7 | 3.5 | 0.00 | 0.07 | 0.07 | 71 | 1016.0 |
| 20260830193512 | 85 | 188 | 0.9 | 3.5 | 0.00 | 0.07 | 0.07 | 71 | 1016.0 |
| 20260830193102 | 84 | 234 | 0.9 | 4.3 | 0.00 | 0.07 | 0.07 | 72 | 1016.1 |
| 20260830193030 | 84 | 288 | 0.9 | 4.3 | 0.00 | 0.07 | 0.07 | 72 | 1016.0 |
| 20260830192515 | 84 | 123 | 0.9 | 4.3 | 0.00 | 0.07 | 0.07 | 74 | 1016.0 |
| 20260830192016 | 84 | 90 | 0.9 | 2.6 | 0.00 | 0.07 | 0.07 | 74 | 1016.0 |
| 20260830191605 | 83 | 269 | 0.9 | 4.3 | 0.00 | 0.07 | 0.07 | 75 | 1016.1 |
| 20260830191534 | 83 | 12 | 0.0 | 4.3 | 0.00 | 0.07 | 0.07 | 75 | 1016.1 |
| 20260830191017 | 83 | 245 | 0.9 | 4.3 | 0.00 | 0.07 | 0.07 | 74 | 1016.2 |
| 20260830190519 | 83 | 218 | 0.9 | 4.3 | 0.00 | 0.07 | 0.07 | 74 | 1016.2 |
| 20260830190104 | 82 | 262 | 0.9 | 4.3 | 0.00 | 0.07 | 0.07 | 73 | 1016.2 |
| 20260830190032 | 82 | 170 | 0.9 | 4.3 | 0.00 | 0.07 | 0.07 | 73 | 1016.2 |
| 20260830185508 | 82 | 146 | 0.9 | 3.5 | 0.00 | 0.07 | 0.07 | 74 | 1016.3 |
| 20260830185007 | 82 | 93 | 1.7 | 3.5 | 0.00 | 0.07 | 0.07 | 74 | 1016.3 |
| 20260830184605 | 82 | 128 | 0.9 | 3.5 | 0.00 | 0.07 | 0.07 | 75 | 1016.3 |
| 20260830184524 | 82 | 143 | 1.7 | 3.5 | 0.00 | 0.07 | 0.07 | 75 | 1016.3 |
| 20260830184009 | 82 | 305 | 0.9 | 3.5 | 0.00 | 0.07 | 0.07 | 74 | 1016.4 |
| 20260830183511 | 82 | 225 | 0.9 | 3.5 | 0.00 | 0.07 | 0.07 | 74 | 1016.4 |
| 20260830183109 | 82 | 274 | 0.9 | 2.6 | 0.00 | 0.07 | 0.07 | 74 | 1016.6 |
| 20260830183028 | 82 | 172 | 0.9 | 2.6 | 0.00 | 0.07 | 0.07 | 74 | 1016.5 |
| 20260830182513 | 82 | 318 | 0.9 | 4.3 | 0.00 | 0.07 | 0.07 | 73 | 1016.6 |
| 20260830182015 | 83 | 108 | 1.7 | 4.3 | 0.00 | 0.07 | 0.07 | 73 | 1016.7 |
| 20260830181601 | 83 | 170 | 0.9 | 3.5 | 0.00 | 0.07 | 0.07 | 74 | 1016.8 |
| 20260830181530 | 83 | 226 | 0.9 | 3.5 | 0.00 | 0.07 | 0.07 | 74 | 1016.7 |
| 20260830181014 | 82 | 210 | 1.7 | 5.2 | 0.00 | 0.07 | 0.07 | 73 | 1016.7 |
| 20260830180518 | 82 | 266 | 1.7 | 5.2 | 0.00 | 0.07 | 0.07 | 72 | 1016.8 |
| 20260830180105 | 82 | 285 | 0.9 | 4.3 | 0.00 | 0.07 | 0.07 | 74 | 1017.0 |
| 20260830180048 | 82 | 314 | 0.9 | 4.3 | 0.00 | 0.07 | 0.07 | 74 | 1016.8 |
| 20260830175518 | 82 | 188 | 1.7 | 4.3 | 0.00 | 0.07 | 0.07 | 73 | 1016.9 |
| 20260830175020 | 82 | 285 | 1.7 | 5.2 | 0.00 | 0.07 | 0.07 | 72 | 1016.9 |
| 20260830174616 | 83 | 319 | 2.6 | 5.2 | 0.00 | 0.07 | 0.07 | 71 | 1017.0 |
| 20260830174534 | 83 | 255 | 2.6 | 5.2 | 0.00 | 0.07 | 0.07 | 70 | 1017.0 |
| 20260830174008 | 83 | 204 | 2.6 | 5.2 | 0.00 | 0.07 | 0.07 | 72 | 1017.1 |
| 20260830173510 | 83 | 290 | 1.7 | 4.3 | 0.00 | 0.07 | 0.07 | 75 | 1017.2 |
| 20260830173105 | 83 | 259 | 1.7 | 4.3 | 0.00 | 0.07 | 0.07 | 75 | 1017.3 |
| 20260830173016 | 83 | 324 | 1.7 | 4.3 | 0.00 | 0.07 | 0.07 | 75 | 1017.4 |
| 20260830172506 | 82 | 297 | 1.7 | 4.3 | 0.00 | 0.07 | 0.07 | 77 | 1017.4 |
| 20260830172006 | 81 | 266 | 1.7 | 3.5 | 0.00 | 0.07 | 0.07 | 77 | 1017.4 |
| 20260830171607 | 81 | 210 | 1.7 | 4.3 | 0.00 | 0.07 | 0.07 | 77 | 1017.4 |
| 20260830171506 | 80 | 237 | 1.7 | 4.3 | 0.00 | 0.07 | 0.07 | 77 | 1017.5 |
| 20260830171004 | 79 | 250 | 1.7 | 5.2 | 0.00 | 0.07 | 0.07 | 80 | 1017.6 |
| 20260830170504 | 79 | 279 | 1.7 | 5.2 | 0.00 | 0.07 | 0.07 | 78 | 1017.6 |
| 20260830170108 | 78 | 311 | 1.7 | 4.3 | 0.00 | 0.07 | 0.07 | 78 | 1017.7 |
| 20260830170008 | 78 | 231 | 0.9 | 4.3 | 0.00 | 0.07 | 0.07 | 78 | 1017.8 |
| 20260830165503 | 78 | 265 | 1.7 | 3.5 | 0.00 | 0.07 | 0.07 | 77 | 1017.8 |
| 20260830165003 | 78 | 299 | 0.9 | 3.5 | 0.00 | 0.07 | 0.07 | 76 | 1017.9 |
| 20260830164605 | 78 | 264 | 1.7 | 4.3 | 0.00 | 0.07 | 0.07 | 76 | 1017.9 |
| 20260830164536 | 79 | 295 | 1.7 | 3.5 | 0.00 | 0.07 | 0.07 | 76 | 1018.0 |
| 20260830164008 | 79 | 268 | 1.7 | 4.3 | 0.00 | 0.07 | 0.07 | 76 | 1018.0 |
| 20260830163506 | 79 | 233 | 2.6 | 5.2 | 0.00 | 0.07 | 0.07 | 74 | 1018.0 |
| 20260830163108 | 79 | 263 | 2.6 | 5.2 | 0.00 | 0.07 | 0.07 | 75 | 1017.9 |
| 20260830163018 | 79 | 252 | 2.6 | 5.2 | 0.00 | 0.07 | 0.07 | 75 | 1018.0 |
| 20260830162510 | 79 | 294 | 2.6 | 4.3 | 0.00 | 0.07 | 0.07 | 78 | 1017.8 |
| 20260830162009 | 79 | 292 | 1.7 | 3.5 | 0.00 | 0.07 | 0.07 | 79 | 1017.8 |
| 20260830161606 | 79 | 255 | 1.7 | 3.5 | 0.00 | 0.07 | 0.07 | 79 | 1017.7 |
| 20260830161519 | 79 | 316 | 1.7 | 3.5 | 0.00 | 0.07 | 0.07 | 80 | 1017.8 |
| 20260830161004 | 78 | 297 | 0.9 | 3.5 | 0.00 | 0.07 | 0.07 | 80 | 1017.8 |
| 20260830160503 | 77 | 294 | 1.7 | 4.3 | 0.00 | 0.07 | 0.07 | 78 | 1017.7 |
| 20260830160117 | 77 | 245 | 1.7 | 4.3 | 0.00 | 0.07 | 0.07 | 78 | 1017.6 |
| 20260830160008 | 77 | 276 | 1.7 | 4.3 | 0.00 | 0.07 | 0.07 | 77 | 1017.6 |
| 20260830155503 | 77 | 237 | 1.7 | 4.3 | 0.00 | 0.07 | 0.07 | 78 | 1017.5 |
| 20260830155005 | 77 | 283 | 0.9 | 3.5 | 0.00 | 0.07 | 0.07 | 79 | 1017.4 |
| 20260830154610 | 77 | 245 | 1.7 | 4.3 | 0.00 | 0.07 | 0.07 | 79 | 1017.4 |
| 20260830154512 | 77 | 257 | 1.7 | 4.3 | 0.00 | 0.07 | 0.07 | 80 | 1017.3 |
| 20260830154005 | 77 | 283 | 0.9 | 4.3 | 0.00 | 0.07 | 0.07 | 80 | 1017.4 |
| 20260830153504 | 76 | 212 | 0.9 | 3.5 | 0.00 | 0.07 | 0.07 | 80 | 1017.3 |
| 20260830153124 | 76 | 117 | 0.9 | 3.5 | 0.00 | 0.07 | 0.07 | 80 | 1017.1 |
| 20260830153017 | 76 | 300 | 1.7 | 3.5 | 0.00 | 0.07 | 0.07 | 81 | 1017.0 |
| 20260830152506 | 76 | 248 | 0.9 | 3.5 | 0.00 | 0.07 | 0.07 | 82 | 1016.9 |
| 20260830152010 | 76 | 46 | 0.9 | 2.6 | 0.00 | 0.07 | 0.07 | 83 | 1017.0 |
| 20260830151610 | 75 | 241 | 0.9 | 4.3 | 0.00 | 0.07 | 0.07 | 83 | 1017.0 |
| 20260830151523 | 75 | 291 | 0.9 | 4.3 | 0.00 | 0.07 | 0.07 | 83 | 1017.0 |
| 20260830151012 | 75 | 299 | 0.9 | 4.3 | 0.00 | 0.07 | 0.07 | 83 | 1016.9 |
| 20260830150512 | 74 | 356 | 0.0 | 3.5 | 0.00 | 0.07 | 0.07 | 85 | 1016.9 |
| 20260830150121 | 74 | 211 | 0.9 | 3.5 | 0.00 | 0.07 | 0.07 | 86 | 1017.0 |
| 20260830150034 | 74 | 158 | 0.9 | 3.5 | 0.00 | 0.07 | 0.07 | 86 | 1017.0 |
| 20260830145505 | 74 | 228 | 0.9 | 1.7 | 0.00 | 0.07 | 0.07 | 86 | 1017.1 |
| 20260830145003 | 73 | 93 | 0.9 | 1.7 | 0.00 | 0.07 | 0.07 | 86 | 1017.2 |
| 20260830144619 | 73 | 229 | 0.0 | 1.7 | 0.01 | 0.07 | 0.07 | 87 | 1017.3 |
| 20260830144511 | 73 | 98 | 0.0 | 1.7 | 0.01 | 0.07 | 0.07 | 87 | 1017.3 |
| 20260830144003 | 73 | 131 | 0.0 | 0.9 | 0.02 | 0.07 | 0.07 | 89 | 1017.5 |
| 20260830143504 | 72 | 186 | 0.0 | 0.9 | 0.07 | 0.07 | 0.07 | 91 | 1017.8 |
| 20260830143103 | 72 | 0 | 0.0 | 0.9 | 0.07 | 0.07 | 0.07 | 91 | 1017.8 |
| 20260830143013 | 72 | 124 | 0.0 | 0.9 | 0.07 | 0.07 | 0.07 | 91 | 1017.8 |
| 20260830142509 | 71 | 96 | 0.0 | 0.9 | 0.07 | 0.07 | 0.07 | 91 | 1017.9 |
| 20260830142008 | 71 | 96 | 0.0 | 0.9 | 0.07 | 0.07 | 0.07 | 90 | 1018.0 |
| 20260830141609 | 71 | 0 | 0.0 | 0.9 | 0.07 | 0.07 | 0.07 | 91 | 1018.1 |
| 20260830141517 | 71 | 96 | 0.0 | 0.9 | 0.07 | 0.07 | 0.07 | 90 | 1018.1 |
| 20260830141011 | 70 | 111 | 0.0 | 0.9 | 0.07 | 0.07 | 0.07 | 90 | 1018.0 |
| 20260830140515 | 70 | 150 | 0.0 | 0.9 | 0.07 | 0.07 | 0.07 | 89 | 1018.0 |
| 20260830140108 | 70 | 124 | 0.0 | 0.9 | 0.07 | 0.07 | 0.07 | 89 | 1018.0 |
| 20260830140023 | 70 | 124 | 0.0 | 0.9 | 0.07 | 0.07 | 0.07 | 89 | 1018.0 |
| 20260830135514 | 70 | 188 | 0.0 | 0.9 | 0.07 | 0.07 | 0.07 | 88 | 1018.1 |